Location: Lafig�re
(44.4503°N, 4.0357°E)
Time: 01:32:39
(UTC+00:00)

Transit 4A - Pass Details

Date: 27 January 2021
Orbit: 866 x 979 km, 66.8° (Epoch: 24 February)

Event Time Altitude Azimuth Distance (km) Brightness Sun altitude
Rises 01:11:33 0° 332° (NNW) 3,643 - -59.6°
Reaches altitude 10° 01:14:44 10° 346° (NNW) 2,676 - -59.3°
Maximum altitude 01:19:34 23° 38° (NE) 1,879 - -58.7°
Drops below altitude 10° 01:24:16 10° 89° (E) 2,606 - -58.2°
Sets 01:27:19 0° 104° (ESE) 3,524 - -57.8°
